Hourly Data Report for September 11, 2020

LOURDES DE BLANC SABLON A
QUEBEC
Current Station Operator: NAVCAN

51°26'31.000" N
57°11'10.000" W
37.20 m
7040815
71808
YBX

Download Data

Hourly Data (September 2020)
Hourly Data Report for September 11, 2020
TIME Temp Definition
°C
Dew Point Definition
°C
Rel Hum Definition
%
Wind Dir Definition
10's deg

Wind Spd Definition
km/h
Visibility Definition
km
Stn Press Definition
kPa
Hmdx Definition


Wind Chill Definition


Weather Definition


00:00 8.1 7.5 96 6 8 24.1 101.35     Rain
01:00 7.7 6.7 94 4 20 24.1 101.30     LegendNANA
02:00 7.2 5.7 90 3 27 24.1 101.26     Cloudy
03:00 7.0 5.2 89 3 25 24.1 101.22     LegendNANA
04:00 6.5 4.5 87 2 19 24.1 101.25     LegendNANA
05:00 6.3 4.1 86 4 22 24.1 101.25     Cloudy
06:00 6.4 3.6 82 3 22 24.1 101.27     LegendNANA
07:00 6.5 3.8 83 2 18 24.1 101.30     LegendNANA
08:00 6.7 3.5 80 1 18 24.1 101.33     Mostly Cloudy
09:00 8.4 3.3 70 4 19 24.1 101.34     LegendNANA
10:00 9.8 3.7 66 5 17 24.1 101.32     LegendNANA
11:00 11.6 3.3 57 4 25 24.1 101.26     Mainly Clear
12:00 11.5 2.8 55 1 15 24.1 101.23     LegendNANA
13:00 12.6 2.4 50 4 16 24.1 101.19     LegendNANA
14:00 12.2 2.9 53 2 12 24.1 101.17     Mostly Cloudy
15:00 10.4 4.8 68 24 9 24.1 101.18     LegendNANA
16:00 10.7 4.8 67 22 12 24.1 101.19     LegendNANA
17:00 10.1 5.1 71 18 8 24.1 101.22     Mainly Clear
18:00 8.3 5.3 81 22 10 24.1 101.24     LegendNANA
19:00 7.6 5.5 87 22 11 24.1 101.27     LegendNANA
20:00 8.6 6.1 85 25 12 24.1 101.29     Mainly Clear
21:00 9.7 7.0 83 25 16 24.1 101.26     LegendNANA
22:00 9.8 7.1 83 25 18 24.1 101.24     LegendNANA
23:00 9.9 7.9 87 26 14 24.1 101.19     Mainly Clear

Notes on Data Quality.

Legend

  • E = Estimated
  • M = Missing
  • NA = Not Available*
  • [empty] = Indicates an unobserved value
Date modified: